Regional Weather Roundup
Issued by NWS

Home | Current Version | Previous Version | Graphics & Text | Print | Product List | Glossary On
Versions: 1 2 3 4 5 6 7 8 9 10 11 12 13 14 15 16 17 18 19 20 21 22 23 24 25 26 27
000
ASUS45 KPSR 240110
RWRAZ

ARIZONA HOURLY REGIONAL WEATHER ROUNDUP
NATIONAL WEATHER SERVICE PHOENIX AZ
600 PM MST SAT JUL 23 2016

NOTE: FAIR INDICATES FEW OR NO CLOUDS BELOW 12,000 FEET WITH NO
SIGNIFICANT WEATHER AND/OR OBSTRUCTIONS TO VISIBILITY.

AZZ001>003-036-240200-
NORTHWEST ARIZONA

CITY           SKY/WX    TMP DP  RH WIND       PRES   REMARKS
BULLHEAD CITY  SUNNY    111  50  13 S14       29.65F HX 108
KINGMAN        SUNNY    101  44  14 SW20G28   29.93F
$$

AZZ004>008-015-016-018-240200-
NORTH CENTRAL ARIZONA

CITY           SKY/WX    TMP DP  RH WIND       PRES   REMARKS
GRAND CANYON   PTSUNNY   86  41  20 S13G22    30.19F
WILLIAMS       MOSUNNY   86  43  22 SW9G17    30.28S
PRESCOTT       MOSUNNY   94  45  18 W13       30.06F
FLAGSTAFF      TSTM      63  52  67 NW9       30.30R
PAYSON         FAIR      95  46  18 SW8G18    30.09S
PAGE           MOSUNNY  101  36  10 VRB6      29.91F
$$

AZZ009>014-017-240200-
NORTHEAST ARIZONA

CITY           SKY/WX    TMP DP  RH WIND       PRES   REMARKS
WINSLOW        CLOUDY    96  41  15 W20G26    30.04R
SAINT JOHNS    PTSUNNY   93  40  15 W12       30.09R
WINDOW ROCK    MOSUNNY   87  49  26 N6        30.18S
SHOW LOW       PTSUNNY   82  45  26 CALM      30.19F
$$

AZZ023-240200-
GREATER PHOENIX AREA

CITY           SKY/WX    TMP DP  RH WIND       PRES   REMARKS
PHOENIX        MOSUNNY  110  53  15 W17G25    29.69F HX 108
BUCKEYE        SUNNY    109  52  15 W10       29.72F HX 107
GLENDALE       MOSUNNY  111  52  14 S17       29.71F HX 109
LUKE AFB       SUNNY    111  52  14 W9        29.69F HX 108
DEER VALLEY    SUNNY    108  52  15 W15       29.72F HX 105
SCOTTSDALE     SUNNY    108  51  15 W13G20    29.74F HX 105
MESA-FALCON    MOSUNNY  N/A N/A N/A SW9       29.71F
MESA-GATEWAY   MOSUNNY  108  54  16 W12       29.74F HX 106
$$

AZZ027-028-240200-
SOUTHWEST MARICOPA COUNTY AND PINAL COUNTY

CITY           SKY/WX    TMP DP  RH WIND       PRES   REMARKS
CASA GRANDE    SUNNY    108  55  18 W14G22    29.77S HX 106
GILA BEND      FAIR     108  57  18 SW16G22   29.70F HX 108
$$

AZZ503-504-507>509-240200-
SOUTHEAST ARIZONA

CITY           SKY/WX    TMP DP  RH WIND       PRES   REMARKS
TUCSON         SUNNY    104  52  17 N12       29.86F HX 101
DAVIS-MONTHAN  SUNNY    102  52  18 N13       29.85F
RYAN FIELD     SUNNY    102  52  18 NW13      29.85F HX 100
NOGALES        PTSUNNY   92  60  34 W3        29.97F
SIERRA VISTA   MOSUNNY   94  50  22 NW15      30.04F
DOUGLAS        SUNNY     96  54  24 W5        29.96F
SAFFORD        MOSUNNY  104  50  16 NW17      29.84R HX 101
$$

AZZ020-021-025-026-031-240200-
SOUTHWEST ARIZONA

CITY           SKY/WX    TMP DP  RH WIND       PRES   REMARKS
YUMA           SUNNY    105  61  23 S10       29.68F HX 106
$$

CAZ031-033-041-043-047-048-061-240200-
SOUTHERN CALIFORNIA

CITY           SKY/WX    TMP DP  RH WIND       PRES   REMARKS
DOWNTOWN L.A.  MOSUNNY   80  67  64 W5        29.79S
L.A. AIRPORT   MOSUNNY   76  65  68 CALM      29.80F
SAN DIEGO      MOSUNNY   70  65  84 S13       29.83F
BURBANK        PTSUNNY   82  63  52 S7        29.81S
ONTARIO        MOSUNNY   91  60  35 W15G24    29.79S
RIVERSIDE      SUNNY     91  59  33 W10G22    29.78S
PALM SPRINGS   SUNNY    107  61  22 SE7       29.70F HX 109
EL CENTRO NAS  PTSUNNY  108  61  21 SE17      29.64F HX 110
IMPERIAL       CLOUDY   109  65  24 SE21      29.63F HX 114
BLYTHE         SUNNY    111  59  18 S21       29.67F HX 112
NEEDLES        PTSUNNY  114  52  13 SW13      29.68F HX 111
$$

NVZ020-UTZ003-240200-
SOUTHERN NEVADA-UTAH

CITY           SKY/WX    TMP DP  RH WIND       PRES   REMARKS
LAS VEGAS      SUNNY    111  26   5 SW14G21   29.71F HX 102
SALT LAKE CITY MOSUNNY   92  21   7 N10       30.02F
$$

NMZ009-TXZ055-240200-
NEW MEXICO-WEST TEXAS

CITY           SKY/WX    TMP DP  RH WIND       PRES   REMARKS
ALBUQUERQUE    CLOUDY    98  37  12 W3        30.01S
EL PASO        MOSUNNY  102  35  10 VRB6      29.90F
$$


........................KEY........................
SKY/WX - SKY CONDITION/WEATHER
TMP    - TEMPERATURE IN FAHRENHEIT
DP     - DEW POINT IN FAHRENHEIT
RH     - RELATIVE HUMIDITY IN PERCENT
WIND   - DIRECTION AND SPEED IN MILES PER HOUR (MPH)
VRB    - VARIABLE WIND DIRECTION
PRES   - MEAN SEA LEVEL PRESSURE IN INCHES OF MERCURY
         F - FALLING PRESSURE   R - RISING PRESSURE
         S - STEADY PRESSURE
VSB    - VISIBILITY IN MILES
HX     - HEAT INDEX IN FAHRENHEIT
WCI    - WIND CHILL INDEX IN FAHRENHEIT
TC     - TEMPERATURE IN CELSIUS WHICH IS ALSO KNOWN AS
         TEMPERATURE IN CENTIGRADE
AFB    - AIR FORCE BASE
         LUKE AFB IS LUKE AIR FORCE BASE
         DAVIS-MONTHAN IS DAVIS-MONTHAN AIR FORCE BASE
NAS    - NAVAL AIR STATION
         EL CENTRO NAS IS EL CENTRO NAVAL AIR STATION
N/A    - NOT AVAILABLE





USA.gov is the U.S. government's official web portal to all federal, state and local government web resources and services.